リニア彗星

345P/LINEAR (2016)

English version
Home page
Updated on March 25, 2017

---------------------------------------------------------------------

・ プロフィール

符号 345P/2016 Q3
再発見日 2016年8月29日
再発見光度 18.9等
再発見者 R. A. Kowalski (Mount Lemmon)

・ 写真集

・ 軌道要素

Epoch 2016 July 31.0 TT = JDT 2457600.5
T 2016 July 16.14816 TT                                 MPCW
q   3.1584611            (2000.0)            P               Q
n   0.12110594     Peri.  196.60878     +0.98789063     +0.15379794
a   4.0459989      Node   154.51711     -0.13639728     +0.92372226
e   0.2193618      Incl.    2.72467     -0.07394511     +0.35083240
P   8.14
From 116 observations 2008 Sept. 2-2016 Dec. 27, mean residual 0".5.

・ 光度変化

        m1 = 12.0 + 5 logΔ + 10.0 log r

---------------------------------------------------------------------

軌道要素はM.P.E.C. 2017-A77に掲載されたものです。
光度グラフはComet for Windowsで作成したものです。

---------------------------------------------------------------------

Copyright(C) Seiichi Yoshida (comet@aerith.net). All rights reserved.